PITTSFIELD MILLS DAM SUNCOOK RIVER PITTSFIELD, NH: From 05/20/2020 09:00 to 06/03/2020 21:00

Date PRECIPITATION INCREMENT [IN] WATER TEMPERATURE [F] AIR TEMPERATURE [F] POOL ELEVATION [FT] RESERVOIR RELEASE [CFS]
06/03/2020 15:00 -- -- -- -- 29.0
06/03/2020 14:00 0.00 65.8 70.0 474.61 28.8
06/03/2020 13:00 0.00 66.0 68.0 474.60 28.8
06/03/2020 12:00 0.00 65.7 66.0 474.61 28.8
06/03/2020 11:00 0.00 66.0 65.0 474.61 29.0
06/03/2020 10:00 0.00 66.0 61.0 474.61 29.5
06/03/2020 09:00 0.00 66.0 57.0 474.61 29.5
06/03/2020 08:00 0.00 66.0 56.0 474.61 29.8
06/03/2020 07:00 0.00 66.2 54.0 474.61 30.0
06/03/2020 06:00 0.00 66.2 54.0 474.61 30.0
06/03/2020 05:00 0.00 66.2 54.0 474.61 30.0
06/03/2020 04:00 0.00 66.2 55.0 474.61 30.3
06/03/2020 03:00 0.00 66.4 55.0 474.61 30.0
06/03/2020 02:00 0.00 66.4 55.0 474.61 30.3
06/03/2020 01:00 0.00 66.6 57.0 474.61 30.0
06/03/2020 00:00 0.00 66.6 57.0 474.61 30.3
06/02/2020 23:00 0.00 66.6 58.0 474.61 30.0
06/02/2020 22:00 0.00 66.6 62.0 474.61 30.5
06/02/2020 21:00 0.00 66.6 64.0 474.61 30.0
06/02/2020 20:00 0.00 66.6 66.0 474.61 30.8
06/02/2020 19:00 0.00 66.7 65.0 474.61 31.0
06/02/2020 18:00 0.00 66.6 66.0 474.61 30.8
06/02/2020 17:00 0.00 66.7 66.0 474.61 31.5
06/02/2020 16:00 0.00 66.7 64.0 474.61 31.3
06/02/2020 15:00 0.00 66.9 63.0 474.61 32.0
06/02/2020 14:00 0.00 66.9 61.0 474.62 32.3
06/02/2020 13:00 0.00 66.9 61.0 474.62 32.5
06/02/2020 12:00 0.00 66.9 60.0 474.62 32.8
06/02/2020 11:00 0.00 66.9 57.0 474.62 33.0
06/02/2020 10:00 0.00 66.9 53.0 474.62 33.3
06/02/2020 09:00 0.00 66.9 48.0 474.62 33.8
06/02/2020 08:00 0.00 67.1 41.0 474.62 34.0
06/02/2020 07:00 0.00 67.1 38.0 474.62 34.3
06/02/2020 06:00 0.00 67.3 38.0 474.63 34.3
06/02/2020 05:00 0.00 67.3 39.0 474.62 34.8
06/02/2020 04:00 0.00 67.3 40.0 474.62 35.0
06/02/2020 03:00 0.00 67.3 43.0 474.63 35.0
06/02/2020 02:00 0.00 67.5 46.0 474.63 35.0
06/02/2020 01:00 0.00 67.5 47.0 474.63 35.8
06/02/2020 00:00 0.00 67.5 50.0 474.63 35.8
06/01/2020 23:00 0.00 67.6 52.0 474.63 35.3
06/01/2020 22:00 0.00 67.6 55.0 474.63 35.5
06/01/2020 21:00 0.00 67.6 56.0 474.63 34.8
06/01/2020 20:00 0.00 68.0 59.0 474.62 35.5
06/01/2020 19:00 0.00 68.2 59.0 474.63 36.0
06/01/2020 18:00 0.00 68.0 59.0 474.63 36.8
06/01/2020 17:00 0.00 68.0 59.0 474.63 36.8
06/01/2020 16:00 0.00 68.4 58.0 474.64 37.8
06/01/2020 15:00 0.00 68.9 58.0 474.64 37.8
06/01/2020 14:00 0.00 68.9 57.0 474.64 39.5
06/01/2020 13:00 0.00 68.9 56.0 474.64 38.0
06/01/2020 12:00 0.00 69.6 54.0 474.65 37.0
06/01/2020 11:00 0.00 69.1 52.0 474.63 39.8
06/01/2020 10:00 0.00 69.1 49.0 474.65 39.5
06/01/2020 09:00 0.00 69.4 45.0 474.64 40.3
06/01/2020 08:00 0.00 69.6 37.0 474.65 40.8
06/01/2020 07:00 0.00 69.8 34.0 474.65 41.0
06/01/2020 06:00 0.00 70.0 34.0 474.65 41.0
06/01/2020 05:00 0.00 70.3 35.0 474.65 42.0
06/01/2020 04:00 0.00 70.5 35.0 474.65 42.0
06/01/2020 03:00 0.00 70.9 36.0 474.65 41.5
06/01/2020 02:00 0.00 70.3 37.0 474.65 42.0
06/01/2020 01:00 0.00 70.5 39.0 474.65 42.5
06/01/2020 00:00 0.00 70.5 42.0 474.65 41.5
05/31/2020 23:00 0.00 70.3 47.0 474.65 41.0
05/31/2020 22:00 0.00 70.3 48.0 474.64 41.0
05/31/2020 21:00 0.00 70.3 51.0 474.64 44.3
05/31/2020 20:00 0.00 70.5 55.0 474.66 40.3
05/31/2020 19:00 0.00 70.5 56.0 474.65 44.8
05/31/2020 18:00 0.00 70.3 57.0 474.66 41.3
05/31/2020 17:00 0.00 70.3 58.0 474.66 40.0
05/31/2020 16:00 0.00 69.8 58.0 474.65 42.3
05/31/2020 15:00 0.00 68.7 58.0 474.64 40.8
05/31/2020 14:00 0.00 69.4 57.0 474.67 41.0
05/31/2020 13:00 0.00 69.6 57.0 474.63 42.5
05/31/2020 12:00 0.00 69.8 54.0 474.65 40.3
05/31/2020 11:00 0.00 70.0 52.0 474.66 44.5
05/31/2020 10:00 0.00 69.8 51.0 474.64 42.3
05/31/2020 09:00 0.00 69.4 51.0 474.65 40.8
05/31/2020 08:00 0.00 70.2 51.0 474.64 45.0
05/31/2020 07:00 0.00 70.2 53.0 474.66 44.3
05/31/2020 06:00 0.00 70.0 56.0 474.66 42.3
05/31/2020 05:00 0.00 70.0 58.0 474.65 42.5
05/31/2020 04:00 0.00 70.2 59.0 474.65 43.3
05/31/2020 03:00 0.00 70.3 61.0 474.65 43.0
05/31/2020 02:00 0.00 70.5 63.0 474.65 43.0
05/31/2020 01:00 0.00 71.1 64.0 474.65 43.3
05/31/2020 00:00 0.00 70.7 60.0 474.65 42.5
05/30/2020 23:00 0.00 71.2 60.0 474.65 43.0
05/30/2020 22:00 0.00 71.1 64.0 474.65 41.0
05/30/2020 21:00 0.00 70.3 70.0 474.65 41.0
05/30/2020 20:00 0.00 70.3 74.0 474.65 41.8
05/30/2020 19:00 0.00 70.0 76.0 474.65 40.5
05/30/2020 18:00 0.00 70.0 75.0 474.63 40.0
05/30/2020 17:00 0.00 69.6 76.0 474.64 39.5
05/30/2020 16:00 0.00 69.3 74.0 474.64 43.0
05/30/2020 15:00 0.00 69.3 73.0 474.66 38.5
05/30/2020 14:00 0.00 68.9 73.0 474.64 39.0
05/30/2020 13:00 0.00 68.4 72.0 474.63 40.3
05/30/2020 12:00 0.00 68.4 71.0 474.64 42.0
05/30/2020 11:00 0.00 68.7 72.0 474.65 38.3
05/30/2020 10:00 0.00 69.1 71.0 474.64 39.3
05/30/2020 09:00 0.00 69.6 70.0 474.64 37.8
05/30/2020 08:00 0.00 68.9 69.0 474.63 37.0
05/30/2020 07:00 0.00 69.3 68.0 474.63 37.3
05/30/2020 06:00 0.00 69.4 69.0 474.64 36.8
05/30/2020 05:00 0.00 69.6 69.0 474.63 36.3
05/30/2020 04:00 0.00 69.4 70.0 474.63 36.0
05/30/2020 03:00 0.00 69.8 71.0 474.63 35.3
05/30/2020 02:00 0.00 69.6 72.0 474.63 34.0
05/30/2020 01:00 0.00 69.6 73.0 474.62 34.5
05/30/2020 00:00 0.00 69.6 74.0 474.63 34.0
05/29/2020 23:00 0.00 68.9 75.0 474.62 33.5
05/29/2020 22:00 0.00 69.3 77.0 474.62 34.3
05/29/2020 21:00 0.00 68.9 78.0 474.62 30.8
05/29/2020 20:00 0.00 68.5 81.0 474.60 33.0
05/29/2020 19:00 0.00 68.9 83.0 474.62 29.8
05/29/2020 18:00 0.00 68.5 84.0 474.61 31.3
05/29/2020 17:00 0.00 68.5 86.0 474.62 30.3
05/29/2020 16:00 0.00 68.7 86.0 474.62 31.5
05/29/2020 15:00 0.00 67.8 84.0 474.62 29.3
05/29/2020 14:00 0.00 69.1 82.0 474.60 28.3
05/29/2020 13:00 0.00 68.4 82.0 474.60 26.5
05/29/2020 12:00 0.00 69.3 78.0 474.61 26.3
05/29/2020 11:00 0.00 69.3 76.0 474.59 25.0
05/29/2020 10:00 0.00 68.9 74.0 474.59 25.0
05/29/2020 09:00 0.00 69.3 72.0 474.59 23.8
05/29/2020 08:00 0.00 69.1 70.0 474.58 22.5
05/29/2020 07:00 0.00 69.3 70.0 474.58 20.8
05/29/2020 06:00 0.00 68.9 70.0 474.57 19.5
05/29/2020 05:00 0.00 69.3 70.0 474.57 18.5
05/29/2020 04:00 0.00 68.9 70.0 474.57 17.8
05/29/2020 03:00 0.00 69.1 70.0 474.56 16.8
05/29/2020 02:00 0.00 69.1 71.0 474.56 15.8
05/29/2020 01:00 0.00 69.1 71.0 474.56 15.0
05/29/2020 00:00 0.00 68.9 71.0 474.55 15.0
05/28/2020 23:00 0.00 68.9 72.0 474.55 15.0
05/28/2020 22:00 0.00 68.5 73.0 474.55 15.5
05/28/2020 21:00 0.00 68.4 75.0 474.56 17.3
05/28/2020 20:00 0.00 68.2 77.0 474.56 21.5
05/28/2020 19:00 0.00 68.0 80.0 474.58 25.3
05/28/2020 18:00 0.00 67.6 80.0 474.60 26.5
05/28/2020 17:00 0.00 67.8 80.0 474.60 22.5
05/28/2020 16:00 0.00 68.7 80.0 474.56 124.8
05/28/2020 15:00 0.00 68.2 81.0 474.54 123.3
05/28/2020 14:00 0.00 67.8 81.0 474.55 125.0
05/28/2020 13:00 -- 69.3 81.0 474.54 --
05/28/2020 12:00 -- 69.1 78.0 474.54 --
05/28/2020 11:00 -- 69.1 77.8 474.54 --
05/28/2020 10:00 -- 69.0 77.6 474.54 --
05/28/2020 09:00 -- 69.0 77.4 474.54 --
05/28/2020 08:00 -- 69.0 77.2 474.54 --
05/28/2020 07:00 -- 69.0 77.0 474.55 --
05/28/2020 06:00 -- 68.9 76.8 474.55 --
05/28/2020 05:00 -- 68.9 76.6 474.55 --
05/28/2020 04:00 -- 68.9 76.4 474.55 --
05/28/2020 03:00 -- 68.8 76.2 474.55 --
05/28/2020 02:00 -- 68.8 76.0 474.55 --
05/28/2020 01:00 -- 68.8 75.8 474.55 --
05/28/2020 00:00 -- 68.8 75.6 474.55 --
05/27/2020 23:00 -- 68.7 75.4 474.55 --
05/27/2020 22:00 -- 68.7 75.2 474.55 --
05/27/2020 21:00 -- 68.7 75.0 474.56 --
05/27/2020 20:00 -- 68.7 74.8 474.56 --
05/27/2020 19:00 -- 68.6 74.6 474.56 --
05/27/2020 18:00 -- 68.6 74.4 474.56 --
05/27/2020 17:00 -- 68.6 74.2 474.56 --
05/27/2020 16:00 -- 68.5 74.0 474.56 --
05/27/2020 15:00 -- 68.5 73.8 474.56 --
05/27/2020 14:00 -- 68.5 73.6 474.56 --
05/27/2020 13:00 -- 68.5 73.4 474.56 --
05/27/2020 12:00 -- 68.4 73.3 474.57 --
05/27/2020 11:00 -- 68.4 73.1 474.57 --
05/27/2020 10:00 -- 68.4 72.9 474.57 --
05/27/2020 09:00 -- 68.3 72.7 474.57 --
05/27/2020 08:00 -- 68.3 72.5 474.57 --
05/27/2020 07:00 -- 68.3 72.3 474.57 --
05/27/2020 06:00 -- 68.3 72.1 474.57 --
05/27/2020 05:00 -- 68.2 71.9 474.57 --
05/27/2020 04:00 -- 68.2 71.7 474.57 --
05/27/2020 03:00 -- 68.2 71.5 474.57 --
05/27/2020 02:00 -- 68.1 71.3 474.58 --
05/27/2020 01:00 -- 68.1 71.1 474.58 --
05/27/2020 00:00 -- 68.1 70.9 474.58 --
05/26/2020 23:00 -- 68.1 70.7 474.58 --
05/26/2020 22:00 -- 68.0 70.5 474.58 --
05/26/2020 21:00 -- 68.0 70.3 474.58 --
05/26/2020 20:00 -- 68.0 70.1 474.58 --
05/26/2020 19:00 -- 67.9 69.9 474.58 --
05/26/2020 18:00 -- 67.9 69.7 474.58 --
05/26/2020 17:00 -- 67.9 69.5 474.58 --
05/26/2020 16:00 -- 67.9 69.3 474.59 --
05/26/2020 15:00 -- 67.8 69.1 474.59 --
05/26/2020 14:00 -- 67.8 68.9 474.59 --
05/26/2020 13:00 -- 67.8 68.7 474.59 --
05/26/2020 12:00 -- 67.8 68.5 474.59 --
05/26/2020 11:00 -- 67.7 68.3 474.59 --
05/26/2020 10:00 -- 67.7 68.1 474.59 --
05/26/2020 09:00 -- 67.7 67.9 474.59 --
05/26/2020 08:00 -- 67.6 67.7 474.59 --
05/26/2020 07:00 -- 67.6 67.5 474.60 --
05/26/2020 06:00 -- 67.6 67.3 474.60 --
05/26/2020 05:00 -- 67.6 67.1 474.60 --
05/26/2020 04:00 -- 67.5 66.9 474.60 --
05/26/2020 03:00 -- 67.5 66.7 474.60 --
05/26/2020 02:00 -- 67.5 66.5 474.60 --
05/26/2020 01:00 -- 67.4 66.3 474.60 --
05/26/2020 00:00 -- 67.4 66.1 474.60 --
05/25/2020 23:00 -- 67.4 65.9 474.60 --
05/25/2020 22:00 -- 67.4 65.7 474.60 --
05/25/2020 21:00 -- 67.3 65.5 474.61 --
05/25/2020 20:00 -- 67.3 65.3 474.61 --
05/25/2020 19:00 -- 67.3 65.1 474.61 --
05/25/2020 18:00 -- 67.2 64.9 474.61 --
05/25/2020 17:00 -- 67.2 64.7 474.61 --
05/25/2020 16:00 -- 67.2 64.5 474.61 --
05/25/2020 15:00 -- 67.2 64.3 474.61 --
05/25/2020 14:00 -- 67.1 64.1 474.61 --
05/25/2020 13:00 -- 67.1 63.9 474.61 --
05/25/2020 12:00 -- 67.1 63.8 474.62 --
05/25/2020 11:00 -- 67.0 63.6 474.62 --
05/25/2020 10:00 -- 67.0 63.4 474.62 --
05/25/2020 09:00 -- 67.0 63.2 474.62 --
05/25/2020 08:00 -- 67.0 63.0 474.62 --
05/25/2020 07:00 -- 66.9 62.8 474.62 --
05/25/2020 06:00 -- 66.9 62.6 474.62 --
05/25/2020 05:00 -- 66.9 62.4 474.62 --
05/25/2020 04:00 -- 66.8 62.2 474.62 --
05/25/2020 03:00 -- 66.8 62.0 474.62 --
05/25/2020 02:00 -- 66.8 61.8 474.63 --
05/25/2020 01:00 -- 66.8 61.6 474.63 --
05/25/2020 00:00 -- 66.7 61.4 474.63 --
05/24/2020 23:00 -- 66.7 61.2 474.63 --
05/24/2020 22:00 -- 66.7 61.0 474.63 --
05/24/2020 21:00 -- 66.7 60.8 474.63 --
05/24/2020 20:00 -- 66.6 60.6 474.63 --
05/24/2020 19:00 -- 66.6 60.4 474.63 --
05/24/2020 18:00 -- 66.6 60.2 474.63 --
05/24/2020 17:00 -- 66.5 60.0 474.63 --
05/24/2020 16:00 -- 66.5 59.8 474.64 --
05/24/2020 15:00 -- 66.5 59.6 474.64 --
05/24/2020 14:00 -- 66.5 59.4 474.64 --
05/24/2020 13:00 0.00 66.4 59.2 474.64 --
05/24/2020 12:00 0.00 66.4 59.0 474.64 154.0
05/24/2020 11:00 0.00 65.8 58.0 474.63 153.8
05/24/2020 10:00 0.00 65.7 54.0 474.63 153.8
05/24/2020 09:00 0.00 65.7 47.0 474.63 153.8
05/24/2020 08:00 0.00 65.8 41.0 474.63 154.0
05/24/2020 07:00 0.00 65.8 37.0 474.63 154.3
05/24/2020 06:00 0.00 66.0 37.0 474.63 154.0
05/24/2020 05:00 0.00 66.2 39.0 474.63 154.0
05/24/2020 04:00 0.00 66.2 39.0 474.63 153.5
05/24/2020 03:00 0.00 66.4 40.0 474.63 153.8
05/24/2020 02:00 0.00 66.6 42.0 474.63 154.0
05/24/2020 01:00 0.00 66.7 44.0 474.63 154.5
05/24/2020 00:00 0.00 67.1 46.0 474.64 155.0
05/23/2020 23:00 0.00 67.5 48.0 474.64 155.8
05/23/2020 22:00 0.00 67.8 50.0 474.64 158.0
05/23/2020 21:00 0.00 67.3 53.0 474.64 158.3
05/23/2020 20:00 0.00 67.1 60.0 474.65 160.8
05/23/2020 19:00 0.00 66.7 62.0 474.66 161.0
05/23/2020 18:00 0.00 66.9 64.0 474.66 164.5
05/23/2020 17:00 0.00 66.9 65.0 474.66 163.3
05/23/2020 16:00 0.00 67.6 65.0 474.66 161.0
05/23/2020 15:00 0.00 66.7 67.0 474.66 162.0
05/23/2020 14:00 0.00 65.3 72.0 474.66 165.5
05/23/2020 13:00 0.00 65.7 71.0 474.67 164.3
05/23/2020 12:00 0.00 66.7 71.0 474.66 163.8
05/23/2020 11:00 0.00 66.2 66.0 474.66 163.0
05/23/2020 10:00 0.00 67.5 65.0 474.65 163.8
05/23/2020 09:00 0.00 66.4 63.0 474.66 163.3
05/23/2020 08:00 0.00 65.8 57.0 474.66 163.5
05/23/2020 07:00 0.00 65.1 53.0 474.66 163.0
05/23/2020 06:00 0.00 64.8 51.0 474.66 161.8
05/23/2020 05:00 0.00 64.6 51.0 474.66 162.3
05/23/2020 04:00 0.00 64.8 52.0 474.65 161.0
05/23/2020 03:00 0.00 64.6 52.0 474.65 160.5
05/23/2020 02:00 0.00 64.4 54.0 474.65 159.0
05/23/2020 01:00 0.00 65.3 56.0 474.64 156.0
05/23/2020 00:00 0.00 64.6 58.0 474.63 152.0
05/22/2020 23:00 0.00 65.7 62.0 474.62 147.3
05/22/2020 22:00 0.00 63.7 68.0 474.60 141.3
05/22/2020 21:00 0.00 64.8 77.0 474.58 134.3
05/22/2020 20:00 0.00 63.3 85.0 474.56 127.8
05/22/2020 19:00 0.00 63.9 85.0 474.53 121.8
05/22/2020 18:00 0.00 63.9 85.0 474.52 120.5
05/22/2020 17:00 0.00 64.0 84.0 474.53 123.0
05/22/2020 16:00 0.00 63.9 83.0 474.54 120.0
05/22/2020 15:00 0.00 63.7 81.0 474.46 106.5
05/22/2020 14:00 0.00 64.8 79.0 474.39 105.8
05/22/2020 13:00 0.00 64.6 77.0 474.40 106.3
05/22/2020 12:00 0.00 64.6 73.0 474.42 107.0
05/22/2020 11:00 0.00 65.3 70.0 474.42 107.0
05/22/2020 10:00 0.00 64.9 65.0 474.43 107.8
05/22/2020 09:00 0.00 64.9 58.0 474.43 108.0
05/22/2020 08:00 0.00 65.1 47.0 474.44 108.3
05/22/2020 07:00 0.00 65.3 44.0 474.45 109.0
05/22/2020 06:00 0.00 65.7 45.0 474.45 109.0
05/22/2020 05:00 0.00 65.8 46.0 474.46 109.3
05/22/2020 04:00 0.00 66.0 49.0 474.46 110.0
05/22/2020 03:00 0.00 66.0 50.0 474.47 110.0
05/22/2020 02:00 0.00 66.2 53.0 474.47 111.0
05/22/2020 01:00 0.00 66.2 56.0 474.48 111.5
05/22/2020 00:00 0.00 66.2 62.0 474.48 112.3
05/21/2020 23:00 0.00 66.0 67.0 474.49 113.0
05/21/2020 22:00 0.00 66.4 68.0 474.49 113.0
05/21/2020 21:00 0.00 66.2 76.0 474.49 113.3
05/21/2020 20:00 0.00 65.3 80.0 474.50 114.5
05/21/2020 19:00 0.00 63.3 81.0 474.50 114.5
05/21/2020 18:00 0.00 61.9 80.0 474.50 115.0
05/21/2020 17:00 0.00 61.5 80.0 474.50 115.0
05/21/2020 16:00 0.00 61.3 79.0 474.50 116.8
05/21/2020 15:00 0.00 61.9 76.0 474.50 117.0
05/21/2020 14:00 0.00 62.1 74.0 474.51 118.3
05/21/2020 13:00 0.00 63.3 72.0 474.52 119.0
05/21/2020 12:00 0.00 63.1 68.0 474.52 119.8
05/21/2020 11:00 0.00 63.1 63.0 474.52 120.3
05/21/2020 10:00 0.00 62.8 57.0 474.53 121.8
05/21/2020 09:00 0.00 62.8 51.0 474.53 122.8
05/21/2020 08:00 0.00 63.1 42.0 474.53 123.0
05/21/2020 07:00 0.00 63.3 38.0 474.53 123.3
05/21/2020 06:00 0.00 63.5 39.0 474.54 124.3
05/21/2020 05:00 0.00 63.7 40.0 474.54 125.3
05/21/2020 04:00 0.00 64.0 42.0 474.54 126.0
05/21/2020 03:00 0.00 64.2 43.0 474.54 127.0
05/21/2020 02:00 0.00 64.4 46.0 474.55 127.8
05/21/2020 01:00 0.00 64.4 48.0 474.55 128.8
05/21/2020 00:00 0.00 63.7 53.0 474.56 130.5
05/20/2020 23:00 0.00 64.9 54.0 474.56 131.5
05/20/2020 22:00 0.00 62.6 58.0 474.56 132.0
05/20/2020 21:00 0.00 64.4 62.0 474.57 133.0
05/20/2020 20:00 0.00 61.5 67.0 474.56 133.5
05/20/2020 19:00 0.00 61.2 69.0 474.57 134.5
05/20/2020 18:00 0.00 60.6 71.0 474.58 136.0
05/20/2020 17:00 0.00 59.9 71.0 474.58 136.8
05/20/2020 16:00 0.00 59.9 69.0 474.59 139.0
05/20/2020 15:00 0.00 59.7 67.0 474.59 139.3
05/20/2020 14:00 -- -- -- -- --
05/20/2020 13:00 -- -- -- -- --
05/20/2020 12:00 -- -- -- -- --
05/20/2020 11:00 -- -- -- -- --
05/20/2020 10:00 -- -- -- -- --
05/20/2020 09:00 -- -- -- -- --